Weather in Metrostroyevskiy

Russia / Tula Oblast     54°24′15″N   38°12′06″E
temp.,
°C
wind,
m/s
gust,
m/s
humid.,
%
clouds,
%
prec.,
mm/h
press.,
hPa
HPBL,
m
18 april, sun
sun1800:00+8ese3693100 0.9 1017416
03:00+7sw3593100 3.4 1018344
06:00+7e1294100 3.6 1018148
09:00+8se1281100 4.3 1019536
12:00+9ene558083 0.7 1019635
15:00+10ne6773100 1.1 10191009
18:00+8ene698499 2.0 10191057
21:00+7ne6993100 3.6 1020333
19 april, mon
mon1900:00+6ne51096100 0.3 1021343
03:00+6ne51095100 0.8 1021409
06:00+6ene61094100 0.4 1020596
09:00+6ene7994100 3.7 1021957
12:00+4ene71196100 0.7 1021740
15:00+2ene61397100 2.1 1022608
18:00+2ene61397100 2.7 1022767
21:00+3ene61197100 3.6 1022850
20 april, tue
tue2000:00+3ene61197100 0.5 1021682
03:00+3ene51098100 1.6 1020690
06:00+4e61298100 0.1 1019547
09:00+5e61295100 0.3 1019652
12:00+6e71393100 0.1 1019683
15:00+6e81489100 0.1 1017798
18:00+5e81691100 1.1 10141047
21:00+5e112090100 5.4 10101136
21 april, wed
wed2100:00+4ese112294100 10.8 10061331
03:00+6ese91894100 15.4 1003897
06:00+7ese101793100 0.4 1001849
09:00+8se91592100 0.8 1000961
12:00+4s81492100 0.7 1003889
15:00+6ssw91478100 0.8 10051324
18:00+5ssw81583100 0.1 10091268
21:00+5sw81481100 0.1 10121261
22 april, thu
thu2200:00+6sw7138267 0.1 1014936
03:00+4sw6128684 0.1 1016478
06:00+4ssw41087100 0.0 1018332
09:00+7sw577592 0.0 1020454
12:00+11sw465623 0.1 10211446
15:00+13sw455619 0.4 10211356
18:00+12sw3669100 1.6 1022410
21:00+9s388477 2.4 1023169